Location: Orpington
(51.3500°N, 0.1000°E)
Time: 10:37:19
(UTC+00:00)

Daily predictions for brighter satellites

Satellite Brightness Start Highest point End
(mag) Time Altitude Azimuth Time Altitude Azimuth Time Altitude Azimuth
SMAP 3.6 16:26:08 10° SE 16:30:24 37° ENE 16:34:40 10° N
CZ-2C R/B 2.9 16:27:36 10° SSE 16:32:26 62° ENE 16:37:09 10° N
Cosmos 1898 Rocket 3.8 16:27:34 10° NNW 16:32:39 46° ENE 16:37:40 10° SE
Cosmos 44 3.6 16:28:18 10° NW 16:33:08 69° SW 16:37:39 10° SSE
Cosmos 1461 3.9 16:29:47 10° WSW 16:33:43 39° NW 16:37:33 10° NNE
Sich 1 4.2 16:30:44 10° NNE 16:34:02 21° ENE 16:37:19 10° ESE
Okean 3 Rocket 4.0 16:32:30 10° NNW 16:37:01 69° W 16:41:27 10° S
Cosmos 2360 Rocket 4.0 16:34:44 10° N 16:37:05 12° NNE 16:39:25 10° NE
Cosmos 1842 Rocket 3.8 16:35:42 10° SSE 16:40:00 50° E 16:44:21 10° NNE
Cosmos 2221 2.6 16:35:54 10° S 16:40:04 56° E 16:44:19 10° NNE
Cosmos 1513 Rocket 4.5 16:34:27 10° S 16:40:32 73° E 16:46:45 10° NNE
SL-08 R/B 3.3 16:39:55 10° NNE 16:44:40 68° ESE 16:49:18 10° S
Cosmos 2084 3.5 16:45:02 10° NW 16:49:18 85° SW 16:53:45 10° SE
deb Kosmos-1763 4.0 16:45:56 10° SSW 16:49:21 79° WNW 16:52:47 10° NNE
Cosmos 1656 3.9 16:44:19 10° NNW 16:49:51 78° WSW 16:55:26 10° SSE
AQUARIUS 4.4 16:49:36 10° SE 16:53:55 49° ENE 16:58:16 10° N
NOSS 2-1 (E) 3.6 16:51:31 10° WSW 16:54:40 46° NW 16:58:03 10° NE
FengYun 1-2 T 4.2 16:49:50 10° SSE 16:55:24 75° ENE 17:00:57 10° NNW
MOS 1 Rocket 4.3 16:50:28 10° N 16:55:26 52° WNW 17:00:06 10° SW
NOSS 2-2 (C) 4.2 16:51:02 10° NW 16:55:40 55° NE 17:02:04 10° ESE
H-2A R/B 2.5 16:51:45 10° SE 16:56:25 36° ENE 17:01:00 10° N
Cosmos 2034 Rocket 4.0 16:50:52 10° S 16:56:54 62° E 17:02:59 10° NNE
Cosmos 1666 4.2 16:54:42 10° NNE 16:57:03 16° ENE 16:59:23 10° ESE
Cosmos 2322 Rocket 3.7 16:53:22 10° NNW 16:57:08 18° NNE 17:00:05 12° ENE
ERBS 2.4 16:53:59 10° WSW 16:57:09 60° NNW 16:59:46 14° NE
USA 306 3.0 16:55:58 10° W 17:00:12 65° N 17:03:44 14° ENE
Cosmos 1697 Rocket 2.6 16:55:34 10° NNW 17:01:12 73° ENE 17:06:49 10° SE
Cosmos 1271 Rocket 4.0 16:58:14 10° SW 17:02:01 43° WNW 17:05:52 10° N
USA 267 3.4 16:58:13 12° ENE 17:04:26 67° SE 17:10:56 10° SW
Cosmos 2369 3.8 16:58:51 10° NNW 17:04:31 56° NE 17:10:08 10° SE
Cosmos 1980 Rocket 2.4 16:59:28 10° NNW 17:04:58 47° NE 17:10:24 10° SE
COSMO-SKYMED 1 4.0 17:05:08 14° ENE 17:06:53 18° E 17:09:51 10° SE
Cosmos 1763 Rocket 3.6 17:03:32 10° S 17:08:27 52° ESE 17:13:26 10° NNE
SL-24 R/B - RUBIN 2 3.7 17:05:19 10° NW 17:09:55 55° NE 17:14:13 10° ESE
Cosmos 1939 Rocket 2.8 17:05:53 10° SSE 17:10:00 84° ENE 17:14:06 10° NNW
Meteor 1-25 Rocket 4.1 17:04:40 10° N 17:10:15 72° ENE 17:15:51 10° SSE
Cosmos 841 Rocket 4.4 17:09:44 10° SSE 17:14:06 28° E 17:17:15 16° NE
Cosmos 1937 Rocket 3.5 17:08:57 10° NNW 17:14:18 70° ENE 17:19:36 10° SSE
SL-16 R/B 3.3 17:10:04 10° NNW 17:14:37 24° NE 17:17:26 17° ENE
Cosmos 1812 4.1 17:13:26 10° SE 17:16:11 19° E 17:16:32 19° E
Cosmos 1633 Rocket 4.0 17:13:42 10° N 17:17:24 26° ENE 17:21:06 10° SE
USA 307 3.1 17:14:16 10° W 17:18:32 62° N 17:21:20 20° ENE
Cosmos 1634 Rocket 4.3 17:12:41 10° SSE 17:18:39 46° E 17:24:38 10° NNE
USA 229 DEB 4.2 17:11:36 10° NW 17:18:51 74° SW 17:26:36 10° SSE
USA 229 4.2 17:11:42 10° NW 17:18:57 75° SW 17:26:41 10° SSE
Cosmos 2082 Rocket 3.1 17:16:48 10° SSE 17:21:34 28° ESE 17:24:28 18° ENE
YAOGAN 1 4.0 17:22:20 19° NE 17:22:20 19° NE 17:25:01 10° NNE
Cosmos 2333 Rocket 4.0 17:19:42 10° N 17:22:39 14° NNE 17:24:11 13° NE
Cosmos 2026 Rocket 3.9 17:16:52 10° N 17:23:01 66° ENE 17:29:03 10° SSE
NOAA 6 4.1 17:18:13 10° SSE 17:23:22 82° WSW 17:28:33 10° NNW
SeaSat 1 4.3 17:20:10 10° NNE 17:24:07 24° NW 17:28:03 10° W
Cosmos 2195 Rocket 4.4 17:20:05 10° N 17:26:16 80° E 17:32:29 10° SSE
CZ-4B DEB 4.2 17:22:26 10° SSE 17:27:57 86° ENE 17:33:30 10° NNW
CORIOLIS 4.2 17:22:40 10° SSE 17:28:05 85° WSW 17:33:34 10° NNW
ATLAS 2AS CENTAUR R/B 3.9 17:21:13 10° WNW 17:28:09 34° NNW 17:33:27 15° NE
Cosmos 372 Rocket 4.0 17:23:25 10° NNW 17:28:37 61° ENE 17:33:48 10° SE
Cosmos 1602 3.6 17:25:05 10° N 17:28:57 81° E 17:32:49 10° SSE
Cosmos 2278 3.9 17:23:22 10° NNW 17:28:58 51° NE 17:34:30 10° SE
Cosmos 1743 Rocket 4.0 17:26:45 10° NNW 17:31:03 65° W 17:35:19 10° S
Okean O Rocket 2.1 17:27:04 10° SE 17:31:12 39° ENE 17:35:22 10° N
ATLAS CENTAUR R/B 3.2 17:29:30 10° W 17:33:07 25° NNW 17:36:14 13° NNE
SL-16 R/B 4.4 17:32:56 10° NNW 17:34:42 11° NNW 17:36:27 10° N
Meteor 2-14 Rocket 4.3 17:29:06 10° N 17:35:15 75° ENE 17:41:19 10° SSE
Cosmos 1782 2.9 17:33:04 10° S 17:36:56 50° E 17:39:44 18° NNE
Cosmos 1151 Rocket 3.8 17:33:13 10° SSE 17:37:00 30° E 17:38:08 27° ENE
COSMOS 2406 3.3 17:33:22 10° S 17:39:00 58° ESE 17:43:04 19° NE
USA 234 4.0 17:33:33 10° SE 17:39:56 54° SW 17:46:20 10° WNW
COSMOS 2455 3.3 17:35:08 10° S 17:40:45 43° ESE 17:43:55 24° ENE
USA 308 3.1 17:36:47 10° W 17:41:00 59° N 17:42:51 31° ENE
Cosmos 1666 Rocket 3.7 17:38:07 10° N 17:42:29 51° ENE 17:46:48 10° SSE
ARGOS 3.2 17:39:39 10° SE 17:44:56 56° ENE 17:50:13 10° N
Cosmos 1470 Rocket 4.4 17:41:33 10° N 17:45:00 29° ENE 17:45:00 29° ENE
Cosmos 1833 Rocket 2.6 17:39:53 10° SSW 17:45:30 79° ESE 17:49:48 18° NNE
ISS -3.2 17:45:23 10° W 17:48:44 57° SSW 17:50:10 30° SE
NOSS 2-2 (D) 4.3 17:44:02 10° NW 17:49:00 82° SW 17:55:59 10° SE
Cosmos 1328 Rocket 4.4 17:47:25 10° SSE 17:50:52 31° ESE 17:50:52 31° ESE
Cosmos 2219 Rocket 3.9 17:48:58 10° N 17:52:11 15° NNE 17:52:22 15° NNE
CZ-2D R/B 3.5 17:48:41 10° S 17:52:31 71° WSW 17:56:21 10° NNW
PAYLOAD B 4.4 17:49:24 10° SSE 17:55:01 76° WSW 18:00:39 10° NNW
SKYMED 2 3.8 17:53:44 32° NE 17:55:20 47° E 17:59:32 10° S
CZ-4 R/B 4.4 17:51:34 10° SSE 17:55:37 59° ENE 17:59:43 10° N
Lacrosse 5 rocket 1.3 17:51:50 10° WNW 17:55:39 56° NNE 17:56:30 45° ENE
Meteor 2-21 Rocket 4.3 17:50:52 10° N 17:57:01 81° E 18:03:06 10° SSE
CZ-4 R/B 3.3 17:59:49 17° NNE 17:59:49 17° NNE 18:00:57 10° N
Cosmos 2298 Rocket 4.4 17:53:52 10° NNW 17:58:55 41° NE 18:00:27 34° E
Landsat 5 4.2 18:00:26 33° ESE 18:00:26 33° ESE 18:03:25 10° SSE
Cosmos 1570 Rocket 4.5 17:56:37 10° S 18:01:25 38° ESE 18:02:05 36° E
ATLAS CENTAUR R/B 2.5 17:53:07 10° SW 18:01:52 74° SSE 18:03:22 41° ENE
CZ-4B R/B 3.1 17:56:27 10° SSE 18:01:53 89° ENE 18:07:16 10° NNW
Cosmos 1500 3.5 17:59:33 10° NNW 18:03:17 63° W 18:06:57 10° S
CZ-2C R/B 2.5 17:59:22 17° NNE 18:03:20 58° E 18:08:25 10° S
SL-08 RB Rocket 3.7 18:00:10 10° SSE 18:04:42 56° ENE 18:09:13 10° N
GEOS 3 Rocket 3.5 18:02:08 26° ESE 18:05:09 69° NE 18:10:20 10° NW
Cosmos 540 Rocket 3.3 18:00:08 10° SSW 18:05:15 88° ESE 18:08:24 24° NNE
Cosmos 1818 3.5 18:01:16 10° NW 18:06:44 63° NE 18:09:03 34° ESE
Meteor 1-11 Rocket 4.1 18:01:30 10° N 18:06:46 40° ENE 18:07:51 36° E
USA 305 3.0 18:04:03 10° WNW 18:08:15 61° N 18:08:56 53° NE
Cosmos 1814 Rocket 4.1 18:04:04 10° S 18:09:05 49° ESE 18:10:09 42° ENE
Cosmos 44 Rocket 3.2 18:05:36 10° NW 18:10:34 62° NE 18:11:46 46° E
CZ-4C R/B 2.9 18:03:43 10° NW 18:10:45 89° SW 18:19:07 10° SE
Sich 1 3.9 18:07:50 10° NNW 18:11:58 49° W 18:16:07 10° SSW
Meteor 1-26 Rocket 4.4 18:06:41 10° SSW 18:12:41 84° WNW 18:18:47 10° NNE
Cosmos 1933 4.4 18:09:50 10° SSW 18:13:44 45° WNW 18:17:36 10° N
Feng Yun 1-1 Rocket 4.3 18:14:51 10° SSE 18:20:44 73° ENE 18:26:37 10° NNW
Cosmos 2360 Rocket 3.2 18:18:01 10° NNW 18:22:13 30° NNE 18:22:13 30° NNE
COSMOS 2428 4.5 18:24:47 10° NNW 18:27:32 17° NNE 18:27:32 17° NNE
deb Chang Zheng 4 4.3 18:24:49 10° S 18:29:02 53° W 18:33:17 10° NNW
Cosmos 1666 3.4 18:29:16 10° NNW 18:32:55 52° W 18:36:31 10° S
ERBS 4.3 18:30:37 10° WNW 18:32:20 23° NW 18:32:20 23° NW
Cosmos 2208 Rocket 4.1 18:28:48 10° S 18:33:46 56° ESE 18:33:46 56° ESE
H-2A R/B 3.4 18:31:01 10° SSW 18:35:50 39° W 18:40:34 10° NNW
Cosmos 2150 Rocket 3.8 18:31:45 10° NNW 18:36:56 71° ENE 18:37:02 71° ENE
USA 306 3.3 18:36:07 10° WNW 18:39:44 57° NW 18:39:44 57° NW
Cosmos 2322 Rocket 2.4 18:36:53 10° NNW 18:41:55 53° NNE 18:41:55 53° NNE
COSMO-SKYMED 1 3.0 18:42:21 45° NNW 18:43:27 61° WNW 18:47:44 10° SSW
USA 267 3.4 18:45:34 46° NE 18:47:29 66° NNW 18:53:57 10° W
Cosmos 2279 Rocket 4.2 18:41:57 10° SSW 18:48:08 70° WNW 18:54:21 10° N
Cosmos 1980 Rocket 3.6 18:43:42 10° NW 18:48:54 38° WSW 18:54:02 10° S
Cosmos 2266 Rocket 3.9 18:43:25 10° N 18:49:49 89° ENE 18:56:16 10° S
Cosmos 1812 3.9 18:47:58 10° SSW 18:51:36 42° WNW 18:51:36 42° WNW
Cosmos 1633 Rocket 4.4 18:51:15 10° NNW 18:55:19 39° W 18:59:24 10° SSW
Cosmos 841 Rocket 4.2 18:50:43 10° SW 18:55:44 50° WNW 18:57:22 37° N
YAOGAN 1 3.9 18:59:29 33° NNW 18:59:29 33° NNW 19:01:59 10° NNW
Cosmos 1125 Rocket 3.5 18:52:41 10° NNW 18:57:27 74° NNW 18:57:27 74° NNW
USA 307 4.0 18:54:26 10° WNW 18:57:22 42° WNW 18:57:22 42° WNW
SL-16 R/B 2.1 18:53:49 10° NNW 18:59:21 83° N 18:59:21 83° N
Cosmos 2237 Rocket 4.4 19:00:17 10° N 19:01:32 13° N 19:01:32 13° N
Meteor 2-15 Rocket 4.3 18:57:44 10° S 19:03:21 74° SSE 19:03:21 74° SSE
Cosmos 2082 Rocket 2.6 18:59:40 10° SW 19:05:17 60° NW 19:06:21 51° N
Okean O Rocket 3.6 19:03:46 10° SSW 19:07:38 29° W 19:11:33 10° NW
Cosmos 2333 Rocket 3.7 19:03:27 10° NNW 19:06:12 25° N 19:06:12 25° N
ATLAS CENTAUR R/B 4.0 19:10:41 10° NW 19:12:21 15° NNW 19:12:21 15° NNW
NOSS 3-4 (A) 4.3 19:11:54 10° NW 19:17:14 43° N 19:17:14 43° N
NOSS 3-4 (C) 4.3 19:12:00 10° NW 19:17:20 42° N 19:17:20 42° N
ATLAS 2AS CENTAUR R/B 3.7 19:14:17 10° NW 19:20:53 35° N 19:20:53 35° N
ISS -0.3 19:22:53 10° W 19:23:10 11° WSW 19:23:10 11° WSW
COSMOS 2455 3.5 19:20:49 10° WSW 19:26:39 50° NW 19:27:05 49° NNW
Cosmos 1833 Rocket 4.4 19:25:21 10° W 19:30:04 27° NW 19:31:31 24° NNW
CZ-4 R/B 4.4 19:35:48 10° NW 19:35:48 10° NW 19:35:54 10° NNW
Lacrosse 5 rocket 4.0 19:30:57 10° WNW 19:32:07 18° WNW 19:32:07 18° WNW
Cosmos 2219 Rocket 4.1 19:32:19 10° NNW 19:34:05 20° NNW 19:34:05 20° NNW
CZ-2C R/B 4.5 19:40:54 19° NNW 19:43:18 26° WNW 19:47:31 10° WSW
Cosmos 2360 Rocket 4.1 20:01:51 10° NW 20:04:00 24° NW 20:04:00 24° NW
Cosmos 2322 Rocket 4.3 20:21:21 10° NW 20:23:46 22° WNW 20:23:46 22° WNW
